Location: Gazon
(48.1318°N, 1.2708°W)
Time: 23:22:18
(UTC+00:00)

ERS-1 Rocket - Pass Details

Date: 18 September 2020
Orbit: 753 x 757 km, 98.5° (Epoch: 25 October)

Event Time Altitude Azimuth Distance (km) Brightness Sun altitude
Exits shadow 20:57:24 36° 37° (NE) 1,200 3.9 -26.7°
Drops below altitude 10° 21:01:01 10° 359° (N) 2,295 5.9 -27.2°
Sets 21:03:26 0° 352° (N) 3,226 6.9 -27.5°
